Location: Newark
(45.9456°N, 15.4064°E)
Time: 12:47:15
(UTC+00:00)

Vanguard 1 Rocket - All Passes

Search period start: 19 January 2020 00:00
Search period end: 29 January 2020 00:00
Orbit: 650 x 4226 km, 34.3° (Epoch: 17 January)

Date Brightness Start Highest point End Pass type
(mag) Time Alt. Az. Time Alt. Az. Time Alt. Az.
19 Jan - 07:29:30 10° SSE 07:33:27 13° SE 07:38:19 10° ESE daylight
19 Jan - 09:47:10 10° SW 09:57:12 41° SSE 10:15:05 10° E daylight
19 Jan - 12:10:37 10° WSW 12:24:45 58° S 12:48:34 10° ESE daylight
19 Jan - 14:36:41 10° W 14:54:46 49° SSW 15:18:53 10° SE daylight
19 Jan - 17:06:46 10° W 17:24:05 27° SW 17:42:28 10° S visible
20 Jan - 08:37:56 10° SSW 08:45:55 29° SE 08:59:04 10° E daylight
20 Jan - 10:59:53 10° WSW 11:11:41 53° SSE 11:33:03 10° E daylight
20 Jan - 13:24:45 10° W 13:40:45 54° SSW 14:05:11 10° SE daylight
20 Jan - 15:52:29 10° W 16:10:38 36° SW 16:32:10 10° SSE visible
20 Jan - 18:30:57 10° WSW 18:38:27 12° SW 18:46:00 10° SW visible
21 Jan - 07:30:12 10° SSE 07:35:21 16° SE 07:42:23 10° E daylight
21 Jan - 09:49:43 10° SW 09:59:28 45° SSE 10:17:18 10° E daylight
21 Jan - 12:13:27 10° WSW 12:27:06 56° S 12:50:27 10° ESE daylight
21 Jan - 14:39:36 10° W 14:56:49 44° SSW 15:20:08 10° SE daylight
21 Jan - 17:10:49 10° W 17:25:43 21° SW 17:41:51 10° S visible
22 Jan - 08:40:12 10° SSW 08:48:04 33° SE 09:01:34 10° E daylight
22 Jan - 11:02:40 10° WSW 11:14:06 54° S 11:35:05 10° ESE daylight
22 Jan - 13:27:39 10° W 13:43:00 50° SSW 14:06:43 10° SE daylight
22 Jan - 15:55:48 10° W 16:12:28 30° SW 16:32:32 10° SSE visible
23 Jan - 07:31:45 10° S 07:37:24 20° SE 07:45:41 10° E daylight
23 Jan - 09:52:24 10° SW 10:01:50 47° SSE 10:19:28 10° E daylight
23 Jan - 12:16:19 10° WSW 12:29:31 54° S 12:52:13 10° ESE daylight
23 Jan - 14:42:40 10° W 14:58:53 38° SSW 15:21:02 10° SSE daylight
23 Jan - 17:15:58 10° WSW 17:27:26 16° SW 17:39:49 10° SSW visible
24 Jan - 08:42:41 10° SW 08:50:22 36° SSE 09:03:59 10° E daylight
24 Jan - 11:05:32 10° WSW 11:16:35 53° S 11:37:01 10° ESE daylight
24 Jan - 13:30:37 10° W 13:45:17 45° SSW 14:08:00 10° SE daylight
24 Jan - 15:59:32 10° W 16:14:22 24° SW 16:32:13 10° S visible
25 Jan - 07:33:45 10° S 07:39:35 23° SE 07:48:37 10° E daylight
25 Jan - 09:55:11 10° WSW 10:04:20 49° SSE 10:21:36 10° E daylight
25 Jan - 12:19:17 10° W 12:31:56 50° S 12:53:48 10° SE daylight
25 Jan - 14:45:58 10° W 15:00:59 33° SSW 15:21:29 10° SSE daylight
25 Jan - 17:25:07 10° WSW 17:29:14 11° SW 17:33:30 10° SW visible
26 Jan - 06:27:02 10° SSE 06:29:21 11° SE 06:32:00 10° ESE daylight
26 Jan - 08:45:19 10° SW 08:52:47 39° SSE 09:06:20 10° E daylight
26 Jan - 11:08:27 10° WSW 11:19:07 51° S 11:38:52 10° ESE daylight
26 Jan - 13:33:43 10° W 13:47:35 40° SSW 14:08:59 10° SE daylight
26 Jan - 16:04:02 10° WSW 16:16:19 19° SW 16:30:54 10° S visible
27 Jan - 07:36:03 10° SSW 07:41:55 27° SE 07:51:21 10° E daylight
27 Jan - 09:58:03 10° WSW 10:06:54 49° S 10:23:40 10° ESE daylight
27 Jan - 12:22:18 10° W 12:34:25 45° SSW 12:55:11 10° SE daylight
27 Jan - 14:49:34 10° W 15:03:08 27° SW 15:21:24 10° SSE daylight
28 Jan - 06:28:02 10° S 06:31:34 15° SE 06:36:06 10° ESE daylight
28 Jan - 08:48:05 10° SW 08:55:20 41° SSE 09:08:37 10° E daylight
28 Jan - 11:11:27 10° WSW 11:21:42 48° S 11:40:35 10° ESE daylight
28 Jan - 13:36:59 10° W 13:49:56 34° SSW 14:09:35 10° SSE daylight
28 Jan - 16:10:12 10° WSW 16:18:22 13° SW 16:27:35 10° SSW visible
